Powrót do katalogu

STARLINK-3727

AktywnyŁącznośćVLEO
NORAD 52125·PAYLOAD·🇺🇸 United States

Wystrzelony Mar 19, 2022 z Cape Canaveral Space Force Station

Loading…

Następne Przeloty (najbliższe 24 godziny)

TLE

ŚwieżeSource: CelesTrak SupGP

Epoka: Sep 15, 2026, 02:28 UTC

1 52125C 22029AP  26258.10326389 -.00039074  00000+0 -11877-2 0  2583
2 52125  53.1579 294.7250 0001005  60.7281  94.8861 15.33515841    19

Śledź STARLINK-3727 w czasie rzeczywistym z AllMySat

Download on the App Store